Sunday, November 23, 2014
21:08 UTC
  |  Log In   |  Register Free
Airport Search:

Caruthersville Memorial Airport
(M05)

Caruthersville Memorial Airport Diagram
No Airport Diagram Available

FAA data valid effective November 13, 2014 - January 08, 2015 (unless otherwise noted).

 
 
 
 
 
 
 
 
 
 
 
 
 
 

Current Aviation Weather for Caruthersville Memorial Airport (M05)

METAR data is unavailable for M05. The nearest METAR location is at KHKA (15.6 nm SW from M05).

The most recent METAR observation for KHKA was updated at: 2016
METAR Summary (Translated METAR)
KHKA
232002Z AUTO 10006KT 4SM -RA OVC009 18/14 A2937 RMK AO2 P0002 T01780144 $
(15.6 nm SW from M05)
KDYR
231955Z 11004KT 3SM BKN006 OVC011 14/08 A2940 RMK AO1
(16.6 nm SE from M05)
TAF
No TAF information found within 50 nm of KBYH
  Airport Weather Conditions for M05

Current weather conditions are
not available for M05


The nearest NOAA weather station
is at HKA, (15.6 nm SW from M05)
  
 Current Weather at HKA
64° F
Rain
East winds at 8.1 mph
HKA NOAA Radar

Pressure: 29.37 in
Humidity: 81%
Wind: East at 8.1 MPH (7 KT)
Dew Point: 57.9°F
Visibility: 2.50 mi


Airport Weather Forecast for M05

Translated METAR and TAF for KBYH
Translated METAR for KBYH (2104 UTC 23 November 2014)
found at http://aviationweather.gov/adds/metars/
 
You entered "KBYH"

Sorry, either there are no data available for your request or you did not enter any valid ICAO airport abbreviations.

See stations.txt for a list of known METAR and TAF locations. Then go back to the ADDS METARs or TAFs page and try again
 
Please try again and, if problems persist, then send mail to ncep.awc.adds@noaa.gov

Find All Airport Services Find A Hotel Find A Rental Car Find A Golf Course Find A Restaurant $100 Hamburger



FBO's on the Field
FBO Company Facility Photos Services Transportation Aviation Fuel Prices: Prices include tax
Catering Weather Repair Courtesy Rental Type 100LL JetA JetA+ MOGAS 8087
 
Add another FBO Facility Photos Catering Weather Repair Courtesy Rental Type 100LL JetA JetA+ MOGAS 8087
Services Transportation Aviation Fuel Prices: Prices include tax
There are no FBO's currently reporting fuel at M05. List your FBO now


model-print
model-print
model-print
model-print